THOR ABLESTAR DEB, 20174

Orbit data source: Space-Track

THOR ABLESTAR DEB, 20174 is space debris in LEO originally from a launch on Thu, 29 Jun 1961 UTC launched from the Air Force Eastern Test Range (AFETR). Debris objects in space refer to the collection of defunct objects orbiting the Earth. Examples of debris include non-operational satellites, rocket bodies, and fragments generated from explosions, collisions, or faulty payload assembly.

Loading next visibility...
Identifier
20174, 1961-015MK
Orbit
LEO
Country
Flag of USUS
Related business
Manufacturer
Unknown
Mission
Spacecraft
Bus & Motor
Unknown
Mass
Unknown
Launch date (UTC)
1961-06-29 (65 years ago)
Launch vehicle
Unknown
Launch site
Air Force Eastern Test Range (AFETR)
Object type
Payload
Rocket body
Debris
Shape & HBR
Unknown shape, 0.1 m
Radar Cross Section
Small (<0.1 m²)

Expand to show TLE details & history
Last TLE update: 22 hours ago

TLE from 22 hours ago
0 THOR ABLESTAR DEB
1 20174U 61015MK  26106.84522741  .00000199  00000-0  30217-3 0  9990
2 20174  67.0610  56.6472 0482464 172.6706 188.1743 13.28771253673640
Epoch: 2026-04-16T20:17Z
TLE epoch observation values (Epoch: 2026-04-16T20:17:07.648Z)
Latitude
-0.00002°
Longitude
-92.6216°
Altitude
1,513.394 km
Speed
6.937 km/s
True Right ascension
03h 46m 35s
True Declination
0° 00' 00"
Sunlit
Object was in daylight at epoch
Visualization orbit readout
Latitude
Unknown
Longitude
Unknown
Altitude
Unknown
Speed
Unknown
Apparent Right ascension
Unknown
Apparent Declination
Unknown
Sunlit
N/A
Visualization observer readout
Local Sidereal Time
01:13:07
Azimuth
Unknown
Elevation
Unknown
Doppler factor
Unknown
Orbital elements
Apogee altitude
1,513.005 km
Perigee altitude
786.613 km
Semi-major axis
7,527.946 km
Eccentricity
0.04825
Inclination
67.061°
RAAN
56.6472°
Arg. of periapsis
172.6706°
True anomaly
187.43261°
Mean anomaly
188.1743°
Eccentric anomaly
187.79918°
Mean motion
3.32299 °/min
Orbital period
108.34 mins
BSTAR
0.00030217
Loading maneuver chart data...
Computing Atmospheric mass density...
Loading historical data...
Loading historical data...
Loading historical data...
Loading historical data...
Loading historical data...
Loading historical data...
Loading historical data...

Documentation

Showing up to 5 results
|